[[{"header":{"parameterUnit":"m.s-1","parameterCategory":1,"la1":30.2991,"la2":30.254,"lo1":-89.0895,"lo2":-89.0444,"dy":0.0017,"dx":0.0017,"nx":28,"ny":28,"refTime":"2025-01-28T09:00:00:Z","depth":0,"parameterNumber":2,"parameterNumberName":"U-component_of_WINDS"},"data":[0,0,0,0,0,0,0,0,0,0,0,0,0,0,0,0,0,0,0,0,0,0,0,0,0,0,0,0,0,0,0,0,0,0,0,0,0,0,0,0,0,0,0,0,0,0,0,0,0,0,0,0,0,0,0,0,0,0,-0.0222,-0.022,0,-0.0087,-0.0086,-0.0084,0.0001,0.0001,0.0001,0.0002,0.0143,0.0146,0.015,0,0,0,0,0,0,0,0,0,0,0,0,0,-0.0404,-0.0401,-0.0222,-0.022,-0.0219,-0.0087,-0.0086,-0.0084,0.0,0.0001,0.0002,0.0002,0.0142,0.0146,0.015,0,0,0,0,0,0,0,0,0,0,0,0,0,-0.0303,-0.04,-0.0222,-0.0161,-0.0154,-0.0088,-0.0085,-0.0083,0.0,0.0001,0.0002,0.0002,0.0141,0.0146,0.015,0.0167,0,0,0.0166,0.0168,0,0,0,0,0,0,0,0,-0.0309,-0.0296,-0.0172,-0.0165,-0.0157,-0.0059,-0.0098,0.0001,0.0,-0.0058,0.0002,0.0003,0.0075,0.0086,0.011,0.0174,0.018,0.0166,0.0169,0.0171,0.0173,0,0,0,0,0,0,0,-0.0316,-0.0302,-0.0168,-0.017,-0.0161,-0.0139,-0.0124,-0.0079,0.0003,-0.0053,-0.0047,-0.0032,0.0079,0.0105,0.0114,0.0182,0.0166,0.017,0.0174,0.0175,0.0266,0.0266,0,0,0,0,0,0,-0.0333,-0.0308,-0.0173,-0.0164,-0.0233,-0.0137,-0.012,-0.0092,0.0003,0.0018,-0.0033,-0.0029,0.0096,0.0108,0.0119,0.0144,0.0171,0.0176,0.0179,0.0267,0.0266,0.0266,0,0,0,0,0,0,-0.0337,-0.0322,-0.0178,-0.0234,-0.0215,-0.0134,-0.0103,-0.0089,-0.0064,0.0018,0.0033,-0.0022,0.0097,0.0112,0.0154,0.015,0.0178,0.0183,0.0268,0.0267,0.0266,0.0195,0,0,0,0,0,0,-0.0343,-0.0324,-0.0317,-0.0235,-0.0212,-0.0146,-0.0104,-0.0087,-0.0056,-0.0049,0.0032,0.0046,0.0098,0.0146,0.0159,0.0158,0.0187,0.0268,0.0267,0.0266,0.0198,0.0192,0.0186,0,0,0,0,0,-0.035,-0.0342,-0.0317,-0.0301,-0.0202,-0.0147,-0.0133,-0.0074,-0.0057,-0.0049,0.0004,0.0044,0.0148,0.015,0.0165,0.0165,0.0269,0.0267,0.0266,0.02,0.0193,0.0186,0,0,0,0,0,0,-0.0425,-0.033,-0.0302,-0.0267,-0.0216,-0.0132,-0.0121,-0.0084,-0.0036,-0.0031,0.0041,0.0059,0.0093,0.0134,0.0134,0.0186,0.0213,0.0215,0.0158,0.0152,0.0146,0.0135,0.0191,0,0,0,0,0,-0.0438,-0.0402,-0.032,-0.0297,-0.0273,-0.0202,-0.0175,-0.0134,-0.0078,-0.0055,0.0001,0.0054,0.01,0.0128,0.0174,0.0204,0.0223,0.0212,0.0206,0.0201,0.0201,0.0219,0.0215,0.0261,0.0261,0.0261,0,0,-0.0463,-0.0407,-0.0388,-0.0311,-0.0266,-0.023,-0.0184,-0.0147,-0.0119,-0.0049,-0.0007,0.0036,0.0102,0.0137,0.0156,0.0172,0.0192,0.0199,0.0194,0.0198,0.0217,0.0213,0.0209,0.026,0.0261,0.0261,0,0,-0.0492,-0.0445,-0.0422,-0.0379,-0.0312,-0.0265,-0.026,-0.0182,-0.0151,-0.0107,-0.0055,-0.002,0.0057,0.0101,0.0133,0.012,0.0158,0.0133,0.0103,0.0119,0.0116,0.0113,0.0108,0.0105,0.0133,0.0133,0.0133,0,-0.0532,-0.0476,-0.0414,-0.0381,-0.0348,-0.0285,-0.026,-0.0221,-0.0143,-0.0122,-0.0105,-0.0009,0.004,0.0087,0.0083,0.0108,0.0116,0.0124,0.0111,0.0109,0.0107,0.0103,0.0101,0.013,0.013,0.013,0.0131,0,-0.0529,-0.0491,-0.0479,-0.0407,-0.0373,-0.0345,-0.0278,-0.0251,-0.0213,-0.0168,-0.0124,-0.0064,-0.0005,0.0009,0.0047,0.0061,0.0069,0.0097,0.0126,0.0098,0.0095,0.0094,0.0125,0.0126,0.0127,0.0128,0,0,-0.06,-0.0495,-0.0492,-0.0459,-0.0382,-0.0351,-0.0319,-0.0262,-0.0241,-0.0189,-0.0161,-0.0098,-0.0072,-0.0035,0.0008,0.0023,0.0008,0.005,0.0052,0.0039,0.0026,0.0003,0.0001,0.0034,0.0034,0.0034,0.002,0,-0.0618,-0.0559,-0.0503,-0.0464,-0.0429,-0.0368,-0.034,-0.029,-0.0247,-0.0209,-0.0161,-0.0118,-0.0086,-0.0064,-0.0046,0.0006,0.0006,0.0008,0.0061,0.0062,0.0042,-0.0001,-0.0024,-0.004,0.002,0.002,0.0019,0,-0.063,-0.0583,-0.0541,-0.0468,-0.0451,-0.0427,-0.0372,-0.0337,-0.0278,-0.0247,-0.0208,-0.0162,-0.0125,-0.0101,-0.0049,-0.0049,-0.0024,0.0005,0.0006,0.0013,0.0038,0.0004,-0.0043,-0.0046,0.0019,0.0019,0.0019,0,-0.0688,-0.0613,-0.0579,-0.0552,-0.0466,-0.0451,-0.0414,-0.0355,-0.0325,-0.0276,-0.0255,-0.0202,-0.0173,-0.0133,-0.0074,-0.0061,-0.0029,0.0001,-0.0003,-0.0004,0.0001,-0.0,-0.0044,0.0018,0.0018,0.0018,0.0018,0,-0.0714,-0.0691,-0.0604,-0.0583,-0.0555,-0.0491,-0.0465,-0.0423,-0.0371,-0.034,-0.0283,-0.0256,-0.0179,-0.0142,-0.0096,-0.0061,-0.0048,-0.0022,-0.001,-0.0028,-0.0031,-0.001,-0.0008,0.0018,0.0018,0.0018,0.0018,0,-0.0773,-0.0715,-0.0673,-0.0596,-0.0575,-0.0559,-0.0492,-0.0469,-0.0423,-0.0385,-0.0372,-0.0299,-0.0253,-0.019,-0.0124,-0.0093,-0.0064,-0.0044,-0.0084,-0.0077,-0.0085,-0.0086,-0.0117,-0.0118,-0.0056,-0.0057,-0.0057,0,-0.0794,-0.0775,-0.0696,-0.0672,-0.0638,-0.06,-0.0569,-0.0505,-0.0475,-0.0408,-0.0393,-0.0342,-0.0299,-0.0227,-0.0168,-0.0117,-0.0097,-0.0111,-0.0088,-0.0107,-0.0098,-0.01,-0.0098,-0.0117,-0.0118,-0.0119,-0.012,0,-0.0837,-0.081,-0.0768,-0.0718,-0.0683,-0.064,-0.0593,-0.0577,-0.0502,-0.0472,-0.0425,-0.0391,-0.0324,-0.0275,-0.0216,-0.0177,-0.0136,-0.0127,-0.0126,-0.0144,-0.0168,-0.0156,-0.01,-0.0127,-0.0126,-0.0126,-0.0125,-0.0125,-0.0878,-0.0859,-0.0801,-0.0758,-0.0716,-0.0675,-0.065,-0.0601,-0.0561,-0.0503,-0.0467,-0.0421,-0.0363,-0.028,-0.0243,-0.0206,-0.019,-0.0187,-0.0187,-0.0187,-0.0194,-0.0174,-0.0195,-0.0195,-0.0195,-0.0194,-0.0194,0,-0.092,-0.088,-0.084,-0.0778,-0.0744,-0.0709,-0.0656,-0.063,-0.0591,-0.0541,-0.05,-0.0446,-0.0398,-0.0335,-0.0283,-0.0265,-0.0245,-0.0254,-0.0255,-0.0247,-0.0211,-0.0218,-0.0271,-0.0271,-0.0271,-0.0271,-0.0271,-0.0271,-0.0937,-0.0904,-0.0869,-0.0814,-0.0773,-0.073,-0.0703,-0.0664,-0.0624,-0.0567,-0.0527,-0.0487,-0.0432,-0.0375,-0.033,-0.0313,-0.0296,-0.0311,-0.0288,-0.0256,-0.0249,-0.0243,-0.0249,-0.0308,-0.0308,-0.0327,-0.0327,-0.0327]},{"header":{"parameterUnit":"m.s-1","parameterCategory":1,"la1":30.2991,"la2":30.254,"lo1":-89.0895,"lo2":-89.0444,"dy":0.0017,"dx":0.0017,"nx":28,"ny":28,"refTime":"2025-01-28T09:00:00:Z","depth":0,"parameterNumber":3,"parameterNumberName":"V-component_of_WINDS"},"data":[0,0,0,0,0,0,0,0,0,0,0,0,0,0,0,0,0,0,0,0,0,0,0,0,0,0,0,0,0,0,0,0,0,0,0,0,0,0,0,0,0,0,0,0,0,0,0,0,0,0,0,0,0,0,0,0,0,0,0.6234,0.6233,0,0.6184,0.6184,0.6183,0.6197,0.6198,0.6199,0.62,0.6147,0.6145,0.6142,0,0,0,0,0,0,0,0,0,0,0,0,0,0.6336,0.6334,0.6234,0.6233,0.6232,0.6185,0.6184,0.6183,0.6197,0.6199,0.62,0.6201,0.6148,0.6145,0.6142,0,0,0,0,0,0,0,0,0,0,0,0,0,0.629,0.6334,0.6234,0.6234,0.6233,0.6185,0.6184,0.6183,0.6197,0.6199,0.62,0.6201,0.6149,0.6145,0.6142,0.6089,0,0,0.6131,0.6129,0,0,0,0,0,0,0,0,0.6293,0.6286,0.6234,0.6234,0.6233,0.6199,0.6201,0.6151,0.6197,0.6211,0.62,0.6202,0.6163,0.6158,0.6145,0.6087,0.6084,0.613,0.6128,0.6127,0.6126,0,0,0,0,0,0,0,0.6296,0.6288,0.6214,0.6234,0.6233,0.6235,0.623,0.6191,0.6179,0.621,0.621,0.6205,0.6163,0.6149,0.6144,0.6084,0.6131,0.6127,0.6125,0.6124,0.5979,0.5977,0,0,0,0,0,0,0.63,0.6291,0.6216,0.6213,0.6267,0.6232,0.6227,0.6208,0.6179,0.6176,0.6203,0.6205,0.6154,0.6148,0.6142,0.6078,0.6127,0.6123,0.6121,0.598,0.5978,0.5976,0,0,0,0,0,0,0.6302,0.6293,0.6218,0.6252,0.6243,0.6229,0.6208,0.6206,0.6193,0.6175,0.6172,0.6192,0.6155,0.6147,0.6102,0.6077,0.6122,0.6119,0.5982,0.598,0.5977,0.595,0,0,0,0,0,0,0.6305,0.6294,0.6274,0.6251,0.6241,0.6179,0.6206,0.6204,0.6187,0.6189,0.6163,0.616,0.6156,0.6108,0.6099,0.6072,0.6116,0.5984,0.5981,0.5978,0.5953,0.5947,0.5941,0,0,0,0,0,0.6309,0.6268,0.6273,0.6264,0.6216,0.6178,0.6171,0.6168,0.6185,0.6164,0.6153,0.6161,0.6081,0.6103,0.6093,0.6065,0.5986,0.5982,0.5978,0.5956,0.5948,0.5941,0,0,0,0,0,0,0.6287,0.6265,0.627,0.6221,0.6201,0.618,0.6154,0.616,0.6134,0.6137,0.6133,0.6127,0.6081,0.6069,0.6093,0.6013,0.6036,0.603,0.6022,0.6015,0.6009,0.6012,0.6113,0,0,0,0,0,0.6276,0.6248,0.623,0.6188,0.6178,0.6168,0.6151,0.6151,0.6129,0.612,0.6105,0.6083,0.6053,0.6034,0.6005,0.5952,0.5946,0.5928,0.5922,0.5917,0.5912,0.5882,0.5873,0.5964,0.5964,0.5964,0,0,0.6254,0.6239,0.6221,0.6184,0.6168,0.6137,0.6161,0.6127,0.6104,0.6115,0.6071,0.606,0.6035,0.5985,0.5963,0.5974,0.5886,0.5913,0.5909,0.5906,0.5877,0.5868,0.5861,0.5961,0.5961,0.5962,0,0,0.6198,0.6184,0.6148,0.6132,0.6108,0.6102,0.6093,0.6071,0.6064,0.6021,0.6028,0.6,0.5949,0.5931,0.5915,0.5853,0.5858,0.5844,0.5812,0.5783,0.5776,0.5769,0.5746,0.5738,0.5838,0.5838,0.5838,0,0.6173,0.6128,0.6128,0.6094,0.6077,0.6087,0.6049,0.6033,0.6001,0.5989,0.6002,0.5938,0.5922,0.5868,0.5853,0.584,0.5829,0.5846,0.5777,0.5771,0.5765,0.5742,0.5734,0.5836,0.5837,0.5837,0.5837,0,0.6098,0.6067,0.604,0.601,0.599,0.5954,0.5948,0.5928,0.5929,0.5921,0.5876,0.5858,0.5825,0.5813,0.5814,0.5759,0.5766,0.5779,0.5801,0.5754,0.5733,0.5725,0.5834,0.5834,0.5835,0.5835,0,0,0.6025,0.5996,0.5986,0.5972,0.5948,0.5923,0.5888,0.5857,0.5839,0.5817,0.5786,0.5743,0.5754,0.5736,0.5735,0.571,0.566,0.5725,0.5724,0.5712,0.5597,0.5587,0.5577,0.5665,0.5663,0.5662,0.5599,0,0.5965,0.5904,0.5903,0.5846,0.5817,0.5826,0.5795,0.5776,0.5768,0.5741,0.5732,0.5701,0.5719,0.5708,0.5683,0.5672,0.5637,0.5676,0.5635,0.5633,0.5639,0.5566,0.5555,0.5496,0.5591,0.5589,0.5588,0,0.5887,0.5864,0.5804,0.5784,0.5771,0.5744,0.5715,0.569,0.5669,0.5664,0.5645,0.5648,0.561,0.5636,0.5584,0.5611,0.5594,0.5586,0.5584,0.5578,0.5607,0.5557,0.5477,0.5468,0.5575,0.5576,0.5577,0,0.5838,0.5791,0.575,0.5738,0.5713,0.5694,0.5682,0.5662,0.5644,0.5619,0.5607,0.5578,0.5562,0.5539,0.5533,0.5553,0.5481,0.5506,0.5475,0.5475,0.5458,0.5458,0.5373,0.545,0.545,0.545,0.545,0,0.577,0.5733,0.5727,0.5701,0.566,0.5659,0.5618,0.5608,0.559,0.5562,0.5568,0.5541,0.5537,0.5508,0.5504,0.5461,0.5454,0.5448,0.5447,0.5447,0.5447,0.5434,0.5437,0.5448,0.5448,0.5449,0.5449,0,0.5707,0.5702,0.5657,0.5638,0.5633,0.5603,0.5586,0.5561,0.5554,0.5518,0.5509,0.5498,0.5465,0.5458,0.5419,0.5416,0.5364,0.5368,0.5371,0.5371,0.5339,0.5342,0.5241,0.5227,0.5315,0.5314,0.5313,0,0.5664,0.5636,0.5614,0.5596,0.5584,0.5555,0.5537,0.5535,0.5516,0.5489,0.5467,0.5435,0.5409,0.5356,0.5343,0.5313,0.5315,0.5282,0.531,0.5311,0.5313,0.5314,0.531,0.5276,0.5275,0.5274,0.5273,0,0.5586,0.5586,0.556,0.5533,0.5511,0.5489,0.5469,0.5453,0.5449,0.5426,0.5393,0.5373,0.5334,0.5301,0.5271,0.5258,0.5264,0.5265,0.5256,0.5254,0.5256,0.5253,0.5355,0.5266,0.5267,0.5268,0.5268,0.5268,0.5531,0.5506,0.5487,0.5458,0.5443,0.5423,0.5398,0.5389,0.5362,0.533,0.5331,0.5294,0.5273,0.5234,0.5219,0.519,0.52,0.5187,0.5184,0.518,0.5176,0.5263,0.5185,0.5185,0.5185,0.5185,0.5185,0,0.5452,0.5441,0.5414,0.5386,0.5363,0.5373,0.535,0.533,0.5298,0.5279,0.5253,0.5215,0.5184,0.517,0.5139,0.5118,0.512,0.511,0.511,0.5107,0.517,0.518,0.5109,0.5109,0.5109,0.5109,0.5109,0.5109,0.5409,0.5367,0.5364,0.5315,0.5303,0.5269,0.5255,0.5237,0.5221,0.5179,0.5153,0.5145,0.5127,0.5095,0.5066,0.5063,0.505,0.5039,0.5036,0.5095,0.5103,0.511,0.5119,0.5036,0.5036,0.4976,0.4975,0.4975]}]]